Flag for Japan Weather past 2 weeks in Okayama, Japan

Now
43 °F

Partly sunny.


Feels Like: 37 °F
Forecast: 34 / 48 °F
Wind: 9 mph from Northwest

Location: Okayama Airport

Current Time: Feb 27, 2015 at 3:43:53 PM

Latest Report: Feb 27, 2015 at 3:00 PM


Visibility: N/A

Pressure: 30.07 "Hg

Humidity: 39%

Dew point: 19 °F

Location of OkayamaLocation

Historic Weather in Okayama — Graph

°F

Okayama temperature yesterday

Maximum temperature yesterday: 45 °F (at 10:00 AM)
Minimum temperature yesterday: 41 °F (at 7:00 AM)
Average temperature yesterday: 44 °F

Past Weeks' High & Low Weather Summary

 TemperatureHumidityPressure
High54 °F (Feb 22, 2:00 PM)100% (Feb 17, 8:00 AM)30.30 "Hg (Feb 17, 8:00 AM)
Low27 °F (Feb 14, 7:00 AM)30% (Feb 25, 3:00 PM)29.65 "Hg (Feb 12, 2:00 PM)
Average43 °F65%30.01 "Hg
* Reported Feb 12 2:00 PM — Feb 27 2:00 PM, Okayama, Weather by CustomWeather, © 2015

Note: Actual official high and low records may vary slightly from our data, if they occured in-between our weather recording intervals... More about our weather records

Advertising

Okayama weather history for previous 24 hours

 ConditionsComfort  
Time TempWeatherWind HumidityBarometerVisibility
2:00 PM
Fri, Feb 27
43 °FPartly sunny.9 mph49%30.04 "HgN/A
1:00 PM43 °FPartly sunny.7 mph46%30.04 "HgN/A
12:00 PM43 °FPartly sunny.8 mph42%30.04 "HgN/A
11:00 AM43 °FScattered clouds.10 mph42%30.07 "HgN/A
10:00 AM43 °FPassing clouds.12 mph49%30.07 "HgN/A
9:00 AM39 °FScattered clouds.8 mph65%30.07 "HgN/A
8:00 AM37 °FPassing clouds.5 mph60%30.07 "HgN/A
7:00 AM34 °FScattered clouds.5 mph65%30.04 "HgN/A
9:00 PM
Thu, Feb 26
43 °FFog.8 mph100%29.92 "Hg1 mi
8:00 PM43 °FFog.8 mph100%29.92 "Hg1 mi
7:00 PM43 °FFog.6 mph100%29.89 "Hg2 mi
6:03 PM45 °FFog.5 mph93%29.89 "Hg1 mi
6:00 PM45 °FFog.6 mph93%29.89 "Hg1 mi
5:00 PM45 °FLight rain. Fog.2 mph93%29.89 "Hg1 mi
4:00 PM45 °FLight rain. Broken clouds.2 mph93%29.89 "Hg6 mi
3:00 PM45 °FLight rain. Broken clouds.2 mph87%29.89 "HgN/A
Weather by CustomWeather, © 2015

See weather overviewHow to use our weather pages